This is the latest recevied weather packets stored in our database for station/object EA2MKR. If no packets are shown the sender has not sent any weather packets the latest 10 day(s).
| Time | Temp. | Humidity | Pressure | Rain* | Wind** | Luminosity | Snow |
|---|---|---|---|---|---|---|---|
| 1777892731 | 12.22° C | 86% | 949.4 hPa | 0 mm | - | - | - |
| 1777892431 | 12.22° C | 85% | 949.7 hPa | 0 mm | - | - | - |
| 1777892131 | 12.22° C | 85% | 949.5 hPa | 0 mm | - | - | - |
| 1777891831 | 12.78° C | 86% | 949.6 hPa | 0 mm | - | - | - |
| 1777891531 | 13.33° C | 85% | 949.5 hPa | 0 mm | - | - | - |
| 1777891231 | 13.33° C | 84% | 949.4 hPa | 0 mm | - | - | - |
| 1777891031 | 13.89° C | 85% | 949.4 hPa | 0 mm | - | - | - |
| 1777890631 | 14.44° C | 85% | 949.4 hPa | 0 mm | - | - | - |
| 1777890331 | 14.44° C | 86% | 949.3 hPa | 0 mm | - | - | - |
| 1777890031 | 14.44° C | 84% | 949.2 hPa | 0 mm | - | - | - |
| 1777889831 | 14.44° C | 85% | 949.2 hPa | 0 mm | - | - | - |
| 1777889431 | 13.89° C | 84% | 949.3 hPa | 0 mm | - | - | - |
| 1777889132 | 14.44° C | 85% | 949.4 hPa | 0 mm | - | - | - |
| 1777888832 | 14.44° C | 85% | 949.3 hPa | 0 mm | - | - | - |
| 1777888532 | 14.44° C | 85% | 949.4 hPa | 0 mm | - | - | - |
| 1777888330 | 15° C | 88% | 949.5 hPa | 0 mm | - | - | - |
| 1777887931 | 14.44° C | 90% | 949.5 hPa | 0 mm | - | - | - |
| 1777887732 | 13.89° C | 91% | 949.5 hPa | 0 mm | - | - | - |
| 1777887332 | 13.89° C | 90% | 949.6 hPa | 0 mm | - | - | - |
| 1777887032 | 13.33° C | 90% | 949.6 hPa | 0 mm | - | - | - |
| 1777886732 | 13.33° C | 90% | 949.5 hPa | 0 mm | - | - | - |
| 1777886430 | 13.33° C | 91% | 949.6 hPa | 0 mm | - | - | - |
| 1777886130 | 13.33° C | 91% | 949.6 hPa | 0 mm | - | - | - |
| 1777885830 | 13.33° C | 91% | 949.5 hPa | 0 mm | - | - | - |
| 1777885531 | 13.33° C | 91% | 949.6 hPa | 0 mm | - | - | - |
* Rain latest hour (hover to see other rain measurements)
** Current wind speed in m/s (hover to see current wind gust speed)